DW3946 Weather Reports


Display with metric or nautical units.
time (UTC)temp
F
wind
direction
speed
MPH
gust
MPH
rain 1hr
in
rain 24hr
in
rain mn
in
humidity
%
barometer
mb
20200401054910 45 44 2.0 9.0 0.00 0.47 0.00 74 1010.1
20200401053911 45 313 2.0 10.0 0.00 0.47 0.00 73 1010.3
20200401052911 45 241 1.0 8.0 0.00 0.47 0.00 73 1010.4
20200401051905 45 272 3.0 14.0 0.00 0.47 0.00 71 1010.5
20200401050902 46 16 4.0 11.0 0.00 0.47 0.00 73 1010.3
20200401045902 46 278 3.0 11.0 0.00 0.47 0.00 76 1010.3
20200401044902 46 9 2.0 13.0 0.00 0.47 0.00 76 1010.4
20200401043902 46 293 3.0 15.0 0.00 0.47 0.00 77 1010.3
20200401042901 46 293 2.0 11.0 0.00 0.47 0.00 78 1010.3
20200401041901 46 270 3.0 12.0 0.00 0.47 0.00 79 1010.2
20200401040905 46 345 2.0 9.0 0.00 0.47 0.00 82 1010.3
20200401035902 46 317 2.0 6.0 0.00 0.47 0.47 84 1010.4
20200401034902 46 302 3.0 11.0 0.00 0.47 0.47 83 1010.5
20200401033902 47 320 3.0 11.0 0.00 0.47 0.47 84 1010.6
20200401032901 47 315 3.0 15.0 0.00 0.47 0.47 83 1010.6
20200401031901 47 323 3.0 13.0 0.00 0.47 0.47 82 1010.4
20200401030902 47 302 3.0 11.0 0.00 0.47 0.47 82 1010.3
20200401025903 47 281 1.0 8.0 0.00 0.47 0.47 81 1010.2
20200401024859 47 30 1.0 7.0 0.00 0.47 0.47 82 1010.0
20200401023900 47 316 2.0 8.0 0.00 0.47 0.47 81 1010.0
20200401022902 47 325 2.0 7.0 0.00 0.47 0.47 81 1009.9
20200401021823 47 338 3.0 13.0 0.00 0.47 0.47 82 1009.8
20200401020801 47 316 2.0 11.0 0.00 0.47 0.47 81 1009.8
20200401015800 47 355 3.0 13.0 0.00 0.47 0.47 81 1009.8
20200401014802 47 15 2.0 11.0 0.00 0.47 0.47 83 1009.5
20200401013800 47 303 2.0 6.0 0.00 0.47 0.47 84 1009.4
20200401012756 47 52 2.0 7.0 0.00 0.47 0.47 85 1009.2
20200401011753 47 314 1.0 7.0 0.00 0.47 0.47 85 1008.9
20200401010754 46 306 2.0 9.0 0.00 0.47 0.47 84 1008.7
20200401005753 47 336 1.0 11.0 0.00 0.47 0.47 85 1008.5
20200401004751 47 316 2.0 10.0 0.00 0.47 0.47 85 1008.7
20200401003748 47 296 3.0 11.0 0.00 0.47 0.47 85 1008.3
20200401002748 47 262 3.0 12.0 0.00 0.47 0.47 86 1008.1
20200401001747 48 284 2.0 5.0 0.00 0.47 0.47 90 1008.0
20200401000737 48 245 2.0 9.0 0.00 0.47 0.47 89 1007.8
20200331235732 48 342 1.0 7.0 0.00 0.47 0.47 89 1007.8
20200331234727 49 272 1.0 4.0 0.00 0.47 0.47 90 1007.7
20200331233720 49 302 0.0 5.0 0.00 0.47 0.47 91 1007.5
20200331232703 49 304 1.0 4.0 0.00 0.47 0.47 91 1007.4
20200331231702 49 315 1.0 5.0 0.00 0.47 0.47 92 1007.1
20200331230707 49 317 0.0 3.0 0.00 0.47 0.47 93 1006.8
20200331225703 49 49 1.0 5.0 0.00 0.47 0.47 92 1006.6
20200331224707 50 299 1.0 6.0 0.00 0.47 0.47 93 1006.3
20200331223654 50 311 0.0 4.0 0.00 0.47 0.47 93 1006.2
20200331222652 50 331 0.0 4.0 0.00 0.47 0.47 94 1005.9
20200331221647 50 315 0.0 3.0 0.00 0.47 0.47 94 1005.7
20200331220633 50 19 0.0 3.0 0.00 0.47 0.47 94 1005.6
20200331215632 50 5 1.0 6.0 0.00 0.47 0.47 93 1005.6
20200331214612 50 346 1.0 5.0 0.00 0.47 0.47 92 1005.6
20200331213612 51 343 0.0 3.0 0.01 0.47 0.47 93 1005.6
20200331212613 51 336 0.0 4.0 0.03 0.47 0.47 93 1005.4
20200331211553 51 298 1.0 4.0 0.03 0.47 0.47 94 1005.3
20200331210539 51 311 0.0 1.0 0.03 0.47 0.47 93 1005.2
20200331205540 52 295 0.0 3.0 0.03 0.47 0.47 92 1004.9
20200331204511 52 0 0.0 2.0 0.03 0.47 0.47 91 1005.1
20200331203500 53 355 0.0 4.0 0.02 0.46 0.46 90 1005.3
20200331202430 54 331 0.0 4.0 0.00 0.44 0.44 87 1005.2
20200331201412 54 308 0.0 6.0 0.00 0.44 0.44 83 1005.0
20200331200412 55 133 0.0 0.0 0.00 0.44 0.44 80 1004.8
20200331195407 55 133 0.0 0.0 0.00 0.44 0.44 77 1004.7
20200331194406 56 133 0.0 0.0 0.00 0.44 0.44 76 1004.5
20200331193405 56 133 0.0 0.0 0.00 0.44 0.44 78 1004.4
20200331192353 56 133 0.0 1.0 0.00 0.44 0.44 76 1004.4
20200331191354 56 133 0.0 1.0 0.00 0.44 0.44 75 1004.5
20200331190335 57 133 0.0 0.0 0.00 0.44 0.44 76 1004.8
20200331185303 57 133 0.0 4.0 0.00 0.44 0.44 74 1005.1
20200331184213 57 132 0.0 0.0 0.00 0.44 0.44 75 1005.0
20200331183153 57 132 1.0 4.0 0.00 0.44 0.44 74 1004.8
20200331182132 57 132 1.0 7.0 0.00 0.44 0.44 72 1004.9
20200331181100 57 143 2.0 6.0 0.00 0.44 0.44 73 1004.9
20200331180100 57 98 2.0 6.0 0.00 0.44 0.44 74 1005.0
20200331175058 56 124 2.0 7.0 0.00 0.44 0.44 73 1004.7
20200331174058 55 147 4.0 10.0 0.00 0.44 0.44 77 1004.7
20200331173056 55 124 5.0 14.0 0.00 0.44 0.44 77 1004.7
20200331172053 55 110 5.0 11.0 0.00 0.44 0.44 77 1005.3
20200331171054 54 108 3.0 12.0 0.00 0.44 0.44 77 1006.1
20200331170053 53 134 1.0 5.0 0.00 0.44 0.44 82 1006.1
20200331165054 53 221 1.0 5.0 0.00 0.44 0.44 88 1005.7
20200331164054 52 150 2.0 8.0 0.01 0.44 0.44 91 1005.9
20200331163055 52 134 2.0 6.0 0.02 0.44 0.44 92 1006.0
20200331162054 51 125 0.0 6.0 0.06 0.44 0.44 96 1007.1
20200331161050 50 111 1.0 6.0 0.12 0.44 0.44 95 1007.4
20200331160055 50 126 1.0 4.0 0.14 0.44 0.44 96 1007.7
20200331155051 50 39 0.0 2.0 0.16 0.44 0.44 96 1009.9
20200331154019 49 38 0.0 2.0 0.20 0.43 0.43 95 1010.9
20200331153006 49 343 0.0 3.0 0.22 0.41 0.42 95 1010.4
20200331152005 49 323 1.0 6.0 0.22 0.38 0.38 94 1010.6
20200331151004 49 294 0.0 4.0 0.19 0.32 0.32 95 1008.1
20200331150004 49 188 1.0 5.0 0.20 0.30 0.30 93 1007.3
20200331145002 49 136 1.0 6.0 0.22 0.28 0.28 93 1006.3
20200331144006 49 120 1.0 4.0 0.21 0.23 0.23 92 1007.6
20200331143005 49 122 1.0 5.0 0.18 0.19 0.19 92 1007.1
20200331142002 50 355 0.0 2.0 0.15 0.16 0.16 92 1007.8
20200331140941 51 317 0.0 4.0 0.12 0.13 0.13 91 1009.3
20200331135935 51 95 0.0 4.0 0.09 0.10 0.10 89 1009.3
20200331134933 53 105 0.0 4.0 0.05 0.06 0.06 82 1007.8
20200331133926 56 107 1.0 7.0 0.01 0.02 0.02 67 1007.7
20200331132919 56 153 1.0 5.0 0.00 0.01 0.01 62 1007.1
20200331131920 56 170 0.0 4.0 0.00 0.01 0.01 61 1007.1
20200331130903 55 323 0.0 1.0 0.00 0.01 0.01 63 1007.7
20200331125902 54 323 0.0 2.0 0.00 0.01 0.01 68 1008.3
20200331124858 54 323 0.0 1.0 0.00 0.01 0.01 74 1009.0
20200331123901 54 323 0.0 0.0 0.00 0.01 0.01 68 1009.3
20200331122901 54 323 0.0 0.0 0.00 0.01 0.01 76 1009.9
20200331121857 53 323 0.0 1.0 0.00 0.01 0.01 75 1010.3
20200331120854 53 323 0.0 0.0 0.00 0.01 0.01 74 1009.9
20200331115855 53 323 0.0 0.0 0.00 0.01 0.01 78 1010.0
20200331114850 53 323 0.0 1.0 0.00 0.01 0.01 79 1010.1
20200331113830 52 323 0.0 0.0 0.00 0.01 0.01 85 1010.5
20200331112821 52 323 0.0 0.0 0.00 0.01 0.01 81 1010.3
20200331111752 52 323 0.0 0.0 0.00 0.01 0.01 88 1010.7
20200331110732 52 323 0.0 0.0 0.00 0.01 0.01 86 1011.2
20200331105736 52 323 0.0 0.0 0.00 0.01 0.01 87 1011.3
20200331104731 52 323 0.0 0.0 0.00 0.01 0.01 87 1011.3
20200331103730 52 323 0.0 0.0 0.00 0.01 0.01 88 1011.6
20200331102731 52 323 0.0 0.0 0.00 0.01 0.01 88 1011.6
20200331101731 52 323 0.0 0.0 0.00 0.01 0.01 87 1011.7
20200331100733 52 323 0.0 0.0 0.00 0.01 0.01 86 1012.1
20200331095731 52 323 0.0 1.0 0.00 0.01 0.01 86 1012.4
20200331094730 52 323 0.0 2.0 0.00 0.01 0.01 87 1012.2
20200331093735 52 323 0.0 0.0 0.00 0.01 0.01 86 1012.0
20200331092731 52 323 0.0 0.0 0.00 0.01 0.01 86 1012.0
20200331090700 52 323 0.0 0.0 0.01 0.01 0.01 87 1012.4
20200331085630 52 323 0.0 0.0 0.01 0.01 0.01 87 1012.5
20200331084631 52 323 0.0 1.0 0.01 0.01 0.01 87 1012.9
20200331083630 52 323 0.0 1.0 0.01 0.01 0.01 87 1012.8
20200331082630 52 323 0.0 1.0 0.01 0.01 0.01 88 1013.3
20200331081630 53 323 0.0 0.0 0.00 0.00 0.00 85 1014.0
20200331080633 53 323 0.0 0.0 0.00 0.00 0.00 86 1014.3
20200331075632 53 323 0.0 0.0 0.00 0.00 0.00 82 1014.7
20200331074631 54 323 0.0 0.0 0.00 0.00 0.00 79 1014.8
20200331073629 54 323 0.0 0.0 0.00 0.00 0.00 77 1014.7
20200331072630 55 323 0.0 0.0 0.00 0.00 0.00 75 1014.5
20200331071620 55 323 0.0 0.0 0.00 0.00 0.00 73 1014.3
20200331070553 55 323 0.0 0.0 0.00 0.00 0.00 74 1014.2
20200331065530 55 323 0.0 0.0 0.00 0.00 0.00 74 1014.1
20200331064505 55 323 0.0 0.0 0.00 0.00 0.00 74 1014.0
20200331063505 55 323 0.0 0.0 0.00 0.00 0.00 77 1014.0
20200331061451 55 323 0.0 0.0 0.00 0.00 0.00 74 1014.4
20200331060448 55 323 0.0 0.0 0.00 0.00 0.00 75 1014.4